Regional Weather Roundup
Issued by NWS

Home | Current Version | Previous Version | Text Only | Print | Product List | Glossary On
Versions: 1 2 3 4 5 6 7 8 9 10 11 12 13 14 15 16 17 18 19 20 21 22 23 24 25 26 27 28 29 30 31 32 33 34 35 36 37 38 39 40 41 42 43 44 45 46 47 48 49 50
000
ASUS43 KLOT 230310
RWRIL

ILLINOIS REGIONAL WEATHER ROUNDUP
NATIONAL WEATHER SERVICE CHICAGO/ROMEOVILLE IL
900 PM CST SAT NOV 22 2014

NOTE: "FAIR" INDICATES FEW OR NO CLOUDS BELOW 12,000 FEET WITH NO
SIGNIFICANT WEATHER AND/OR OBSTRUCTIONS TO VISIBILITY.

* THESE STATIONS ARE NOT UNDER NWS QUALITY CONTROL. THEY ALSO MAY NOT
  REPORT WEATHER SUCH AS PRECIPITATION OR FOG.

ILZ001-002-007-009-015-016-024-230400-
NORTHWEST ILLINOIS

CITY           SKY/WX    TMP DP  RH WIND       PRES   REMARKS
MOLINE         PTCLDY    53  47  79 S13G21    29.78S
STERLING*      CLOUDY    52  46  82 S6        29.82R
SAVANNA*       CLOUDY    52  48  86 S14       29.78S
$$

ILZ003-004-008-010-011-017-018-230400-
NORTH CENTRAL ILLINOIS

CITY           SKY/WX    TMP DP  RH WIND       PRES   REMARKS
ROCKFORD       CLOUDY    49  45  86 S9        29.83S
FREEPORT*      CLOUDY    49  47  92 S15       29.80F
ROCHELLE*      CLOUDY    49  46  89 S14       29.83S
DE KALB*       CLOUDY    46  44  90 S15       29.84S
PERU*          CLOUDY    53  47  79 S18       29.86R
$$

ILZ005-006-012>014-019>023-230400-
NORTHEAST ILLINOIS

CITY           SKY/WX    TMP DP  RH WIND       PRES   REMARKS
CHICAGO-OHARE  CLOUDY    51  45  79 S15       29.85S
CHICAGO-MIDWAY CLOUDY    52  47  83 SW10      29.88R
AURORA         CLOUDY    52  45  77 S17G24    29.85F
LANSING*       CLOUDY    51  46  82 SW18G26   29.90R
JOLIET*        CLOUDY    52  46  82 SW14      29.89R
WAUKEGAN       PTCLDY    49  44  83 S16       29.82S
DUPAGE AIRPORT CLOUDY    50  45  83 S17       29.85S
KANKAKEE*      CLOUDY    51  47  86 S14       29.92S
WHEELING       CLOUDY    51  45  79 S14       29.86S
MORRIS*        CLOUDY    52  48  87 SW15G23   29.87S
ROMEOVILLE*    CLOUDY    52  46  81 SW14G22   29.88R
NORTHERLY ISL    N/A     52  45  77 S14         N/A
$$

LMZ740>746-230400-
SOUTHERN LAKE MICHIGAN

STATION/POSITION SKY/WX   TEMP    WIND        PRES    VSBY  WAVE
                          AIR SEA DIR/SP/G                  HT/PER
                          (F)     (DEG/KT/KT) (MB)    (MI)  (FT/S)
SOUTHERN BUOY              46 42  190/ 16/ 19 1010.8F         3/ 4
WAUKEGAN HARBOR            52     220/ 15/ 19   N/A
HARRISON CRIB              51     200/ 23/ 28   N/A
BURNHAM HARBOR             52     210/  9/ 12   N/A
CALUMET HARBOR             52     200/ 10/ 16 1010.8R
MICHIGAN CITY              52     170/ 17/ 21   N/A
$$

ILZ025>027-034>036-040-047-049-050-058-095>099-230400-
WEST-CENTRAL ILLINOIS

CITY           SKY/WX    TMP DP  RH WIND       PRES   REMARKS
QUINCY         CLOUDY    54  49  83 S16G23    29.82F
GALESBURG*     PTCLDY    49  46  88 S12       29.81F
MACOMB*        MOCLDY    50  47  88 S16G22    29.85S
JACKSONVILLE*  CLOUDY    54  50  87 S13       29.87F
PITTSFIELD*    CLOUDY    54  49  85 S12       29.87F
$$

ILZ028>032-037-038-041>044-048-051>054-059>061-230400-
CENTRAL ILLINOIS

CITY           SKY/WX    TMP DP  RH WIND       PRES   REMARKS
PONTIAC        CLOUDY    52  48  87 S14       29.90S
BLOOMINGTON    MOCLDY    50  46  87 S18       29.90F
DECATUR        LGT RAIN  53  48  83 S21       29.92F
PEORIA         MOCLDY    53  47  79 S16       29.86F
LACON*         MOCLDY    52  46  80 S13G20    29.85S
LINCOLN*       MOCLDY    52  47  83 S12       29.89F
SPRINGFIELD    LGT RAIN  53  48  83 S18       29.89F
TAYLORVILLE    RAIN      50  48  93 S14       29.92F
$$

ILZ033-039-045-046-055>057-062-063-230400-
EAST-CENTRAL ILLINOIS

CITY           SKY/WX    TMP DP  RH WIND       PRES   REMARKS
CHAMPAIGN      LGT RAIN  50  46  86 S18       29.94F
DANVILLE*      RAIN      49  47  93 SW6       29.95R
RANTOUL*       CLOUDY    51  48  89 S13       29.94S
MATTOON        LGT RAIN  50  45  83 S8        29.96S
PARIS*         LGT RAIN  51  46  80 S10G16    29.98S
$$

ILZ079-100>102-230400-
SOUTHWEST ILLINOIS

CITY           SKY/WX    TMP DP  RH WIND       PRES   REMARKS
ALTON          LGT RAIN  52  50  93 S12       29.93R
BELLEVILLE     CLOUDY    52  52 100 S3        29.93S
CAHOKIA*       CLOUDY    54  50  86 VRB3      29.92S
SPARTA*        CLOUDY    55  45  69 S13G20    29.95F
$$

ILZ064>066-069>071-074>076-080>082-084>086-088>090-092>094-230400-
SOUTH-CENTRAL ILLINOIS

CITY           SKY/WX    TMP DP  RH WIND       PRES   REMARKS
CARBONDALE     MOCLDY    58  39  49 S15       29.97F
CAIRO*         MOCLDY    60  39  46 S8        30.01S
EFFINGHAM*     CLOUDY    52  43  71 S5        29.97F
MARION         MOCLDY    59  39  47 S13       29.98F
MT. VERNON     CLOUDY    55  43  62 S7        29.97F
CENTRALIA*     CLOUDY    52  44  74 S6        29.95F
SALEM*           N/A     55  47  76 CALM      29.96F
METROPOLIS*    MOCLDY    58  39  49 CALM      30.00F
$$

ILZ067-068-072-073-078-083-087-091-230400-
SOUTHEAST ILLINOIS

CITY           SKY/WX    TMP DP  RH WIND       PRES   REMARKS
LAWRENCEVILLE  CLOUDY    51  41  68 S7        30.01F
FLORA*         DRIZZLE   51  44  77 S7        29.98F
FAIRFIELD*     CLOUDY    54  42  63 S6        29.97F
HARRISBURG*    CLOUDY    59  37  43 S9        30.01F
ROBINSON*      CLOUDY    54  40  60 S8        30.01S
CARMI*         MOCLDY    56  42  59 S8        30.00F
$$

ABBREVIATIONS USED IN REMARKS
   TC - TEMPERATURE IN CELSIUS
  WCI - WIND CHILL INDEX
   HX - HEAT INDEX
  VSB - VISIBILITY
$$



USA.gov is the U.S. government's official web portal to all federal, state and local government web resources and services.